[[{"header":{"parameterUnit":"m.s-1","parameterCategory":1,"la1":30.2991,"la2":30.254,"lo1":-89.0895,"lo2":-89.0444,"dy":0.0017,"dx":0.0017,"nx":28,"ny":28,"refTime":"2024-07-17T03:00:00:Z","depth":0,"parameterNumber":2,"parameterNumberName":"U-component_of_WINDS"},"data":[0,0,0,0,0,0,0,0,0,0,0,0,0,0,0,0,0,0,0,0,0,0,0,0,0,0,0,0,0,0,0,0,0,0,0,0,0,0,0,0,0,0,0,0,0,0,0,0,0,0,0,0,0,0,0,0,0,0,1.1209,1.1209,0,1.1252,1.1252,1.1253,1.1254,1.1254,1.1253,1.1253,1.1295,1.1297,1.1299,0,0,0,0,0,0,0,0,0,0,0,0,0,1.1125,1.1127,1.1209,1.1209,1.121,1.1252,1.1252,1.1253,1.1254,1.1254,1.1253,1.1252,1.1295,1.1297,1.1299,0,0,0,0,0,0,0,0,0,0,0,0,0,1.1164,1.1127,1.1209,1.1216,1.1217,1.1251,1.1252,1.1253,1.1254,1.1254,1.1253,1.1252,1.1294,1.1297,1.1299,1.1329,0,0,1.1306,1.1307,0,0,0,0,0,0,0,0,1.1162,1.1167,1.1214,1.1215,1.1216,1.1247,1.1238,1.1278,1.1254,1.124,1.1253,1.1252,1.128,1.1283,1.1293,1.1331,1.1333,1.1307,1.1308,1.1309,1.131,0,0,0,0,0,0,0,1.1159,1.1165,1.1226,1.1215,1.1216,1.1216,1.122,1.1246,1.1264,1.1241,1.1241,1.1246,1.128,1.1291,1.1294,1.1334,1.1307,1.1309,1.131,1.1311,1.1397,1.1398,0,0,0,0,0,0,1.1155,1.1163,1.1224,1.1227,1.1187,1.1218,1.1223,1.1238,1.1263,1.1267,1.1247,1.1246,1.1287,1.1291,1.1296,1.1331,1.1309,1.1311,1.1313,1.1396,1.1397,1.1398,0,0,0,0,0,0,1.1154,1.1161,1.1222,1.1195,1.1203,1.122,1.1237,1.1239,1.1249,1.1268,1.1271,1.1255,1.1286,1.1292,1.1321,1.1333,1.1313,1.1315,1.1395,1.1396,1.1398,1.1404,0,0,0,0,0,0,1.1151,1.116,1.1173,1.1195,1.1204,1.1248,1.1237,1.124,1.1254,1.1253,1.1276,1.1279,1.1286,1.1317,1.1323,1.1336,1.1317,1.1394,1.1396,1.1397,1.1403,1.1405,1.1407,0,0,0,0,0,1.1148,1.1173,1.1173,1.1181,1.122,1.1248,1.1253,1.1262,1.1255,1.1267,1.1278,1.1278,1.1331,1.132,1.1327,1.134,1.1393,1.1395,1.1397,1.1401,1.1405,1.1407,0,0,0,0,0,0,1.1151,1.1176,1.1177,1.121,1.1227,1.1248,1.1264,1.1265,1.1284,1.1283,1.1293,1.1298,1.1325,1.1336,1.1323,1.137,1.1361,1.1364,1.1362,1.1365,1.1367,1.1364,1.1319,0,0,0,0,0,1.1156,1.1177,1.1198,1.1225,1.1233,1.1247,1.126,1.1264,1.1282,1.129,1.1303,1.132,1.134,1.1353,1.1373,1.1404,1.1408,1.1417,1.1419,1.1421,1.1423,1.1438,1.1442,1.1404,1.1404,1.1404,0,0,1.1166,1.1182,1.1195,1.1225,1.1239,1.126,1.1253,1.1276,1.1291,1.1293,1.132,1.1331,1.135,1.1379,1.1393,1.1389,1.1435,1.1423,1.1425,1.1426,1.1441,1.1444,1.1447,1.1405,1.1405,1.1405,0,0,1.1193,1.1208,1.1232,1.1245,1.1266,1.1275,1.1281,1.1302,1.1309,1.1336,1.1338,1.1355,1.139,1.1403,1.1415,1.1445,1.1445,1.1452,1.1463,1.1478,1.1481,1.1484,1.1493,1.1497,1.1454,1.1454,1.1454,0,1.1202,1.1234,1.1243,1.1265,1.1278,1.1281,1.1304,1.1316,1.1342,1.1351,1.1346,1.1389,1.1402,1.1433,1.1441,1.145,1.1456,1.1449,1.148,1.1483,1.1485,1.1494,1.1498,1.1455,1.1455,1.1455,1.1454,0,1.1243,1.1265,1.1282,1.1306,1.1321,1.1343,1.1354,1.1368,1.1371,1.138,1.1407,1.1423,1.1445,1.1453,1.1457,1.1485,1.1481,1.1478,1.1469,1.1489,1.1498,1.1502,1.1455,1.1455,1.1455,1.1455,0,0,1.1275,1.1303,1.1309,1.1319,1.1342,1.1359,1.138,1.1402,1.1412,1.143,1.1447,1.1476,1.1473,1.1486,1.1491,1.1504,1.1525,1.1499,1.1499,1.1502,1.1554,1.1555,1.1559,1.1525,1.1526,1.1526,1.1552,0,1.1304,1.1343,1.1351,1.1384,1.1403,1.1406,1.1424,1.1439,1.1448,1.1465,1.1474,1.1494,1.1489,1.1496,1.1509,1.1519,1.1535,1.1518,1.154,1.1541,1.1534,1.1564,1.1566,1.1589,1.1555,1.1556,1.1556,0,1.1343,1.1361,1.1396,1.1415,1.1423,1.144,1.1459,1.1476,1.1492,1.1497,1.1511,1.1514,1.1535,1.1525,1.1554,1.1542,1.1551,1.1557,1.1558,1.156,1.1549,1.1565,1.1597,1.16,1.1562,1.1562,1.1561,0,1.136,1.1394,1.1418,1.1427,1.145,1.1461,1.1471,1.1487,1.1498,1.1515,1.1523,1.1542,1.1552,1.1566,1.1573,1.1566,1.1601,1.1592,1.1604,1.1604,1.1611,1.161,1.1644,1.1619,1.1619,1.1619,1.1619,0,1.1391,1.1412,1.1426,1.1441,1.1464,1.1473,1.1495,1.1504,1.1518,1.1534,1.1538,1.1552,1.1562,1.1578,1.1584,1.1606,1.1611,1.1615,1.1616,1.1614,1.1613,1.162,1.1618,1.162,1.162,1.162,1.1619,0,1.1414,1.1425,1.1452,1.147,1.1475,1.1491,1.1507,1.1521,1.1529,1.1549,1.1554,1.1567,1.1586,1.1595,1.1618,1.1622,1.1646,1.1647,1.1641,1.1641,1.1652,1.165,1.169,1.1695,1.1668,1.1668,1.1668,0,1.1433,1.1449,1.1469,1.148,1.149,1.1508,1.152,1.1528,1.154,1.1559,1.157,1.1589,1.1605,1.1634,1.1645,1.1663,1.1663,1.1676,1.1666,1.1663,1.1662,1.166,1.1661,1.1677,1.1678,1.1678,1.1678,0,1.1464,1.1468,1.1485,1.1504,1.1518,1.1533,1.1547,1.1556,1.1566,1.1579,1.1599,1.161,1.1634,1.1652,1.167,1.1679,1.168,1.1681,1.1684,1.1682,1.1677,1.1679,1.1644,1.168,1.168,1.168,1.168,1.1679,1.1484,1.1498,1.1514,1.1532,1.1544,1.1557,1.1571,1.158,1.1597,1.1616,1.162,1.164,1.1654,1.1679,1.1688,1.1703,1.17,1.1706,1.1707,1.1708,1.1707,1.1675,1.1706,1.1706,1.1706,1.1706,1.1706,0,1.1514,1.1524,1.1541,1.1561,1.1575,1.1575,1.1591,1.1602,1.162,1.1634,1.1649,1.167,1.1687,1.1698,1.1716,1.1725,1.1726,1.1729,1.1728,1.173,1.171,1.1704,1.1728,1.1728,1.1728,1.1728,1.1728,1.1728,1.1532,1.1554,1.156,1.1588,1.1597,1.1617,1.1626,1.1637,1.1648,1.1671,1.1686,1.1693,1.1705,1.1723,1.1739,1.1741,1.1747,1.175,1.1753,1.1734,1.1732,1.1729,1.1724,1.1752,1.1752,1.1772,1.1772,1.1772]},{"header":{"parameterUnit":"m.s-1","parameterCategory":1,"la1":30.2991,"la2":30.254,"lo1":-89.0895,"lo2":-89.0444,"dy":0.0017,"dx":0.0017,"nx":28,"ny":28,"refTime":"2024-07-17T03:00:00:Z","depth":0,"parameterNumber":3,"parameterNumberName":"V-component_of_WINDS"},"data":[0,0,0,0,0,0,0,0,0,0,0,0,0,0,0,0,0,0,0,0,0,0,0,0,0,0,0,0,0,0,0,0,0,0,0,0,0,0,0,0,0,0,0,0,0,0,0,0,0,0,0,0,0,0,0,0,0,0,4.48,4.48,0,4.4861,4.4862,4.4862,4.4826,4.4824,4.4822,4.4821,4.4877,4.488,4.4883,0,0,0,0,0,0,0,0,0,0,0,0,0,4.4643,4.4646,4.4799,4.48,4.4801,4.4861,4.4862,4.4863,4.4826,4.4824,4.4822,4.482,4.4876,4.488,4.4884,0,0,0,0,0,0,0,0,0,0,0,0,0,4.4708,4.4647,4.4799,4.479,4.479,4.4861,4.4862,4.4863,4.4827,4.4824,4.4821,4.4819,4.4875,4.488,4.4884,4.4965,0,0,4.4899,4.4901,0,0,0,0,0,0,0,0,4.4705,4.4714,4.4791,4.4791,4.4791,4.4833,4.4827,4.4897,4.4827,4.4813,4.4821,4.4818,4.4864,4.487,4.4887,4.4968,4.4971,4.4899,4.4902,4.4904,4.4905,0,0,0,0,0,0,0,4.47,4.4711,4.4824,4.4792,4.4792,4.4781,4.4787,4.484,4.4852,4.4814,4.4811,4.4819,4.4864,4.4882,4.4888,4.4971,4.4899,4.4903,4.4906,4.4908,4.512,4.5122,0,0,0,0,0,0,4.4697,4.4708,4.4822,4.4825,4.4741,4.4786,4.4793,4.4822,4.4851,4.4854,4.4821,4.4817,4.4876,4.4882,4.489,4.4985,4.4904,4.4908,4.4911,4.5117,4.512,4.5123,0,0,0,0,0,0,4.4694,4.4708,4.4819,4.4766,4.4779,4.4791,4.4824,4.4825,4.4843,4.4858,4.4859,4.4839,4.4874,4.4883,4.4947,4.4987,4.491,4.4915,4.5114,4.5118,4.5122,4.5178,0,0,0,0,0,0,4.469,4.4707,4.474,4.4767,4.4782,4.4878,4.4827,4.4828,4.4852,4.4848,4.4874,4.4876,4.4873,4.494,4.4952,4.4992,4.4918,4.511,4.5116,4.5121,4.5172,4.5183,4.5193,0,0,0,0,0,4.4684,4.4752,4.4742,4.4755,4.4824,4.488,4.4888,4.4885,4.4856,4.4887,4.4896,4.4875,4.4981,4.4947,4.4959,4.5002,4.5107,4.5114,4.512,4.5168,4.5181,4.5193,0,0,0,0,0,0,4.4727,4.4755,4.4744,4.4823,4.485,4.4874,4.4914,4.49,4.4933,4.4927,4.492,4.4926,4.4992,4.5003,4.4965,4.5081,4.5039,4.5048,4.5071,4.5084,4.5094,4.5089,4.4922,0,0,0,0,0,4.4746,4.4792,4.4813,4.488,4.4895,4.4902,4.4926,4.4922,4.4948,4.4958,4.4972,4.4996,4.5034,4.506,4.5096,4.5174,4.5178,4.5209,4.5219,4.5228,4.5235,4.5275,4.5289,4.5144,4.5144,4.5144,0,0,4.4785,4.4806,4.4835,4.489,4.491,4.4954,4.4912,4.4961,4.4993,4.4965,4.5026,4.5037,4.5063,4.5134,4.5166,4.5145,4.5276,4.5236,4.5242,4.5245,4.5283,4.5297,4.5309,4.5149,4.5148,4.5147,0,0,4.4878,4.49,4.4958,4.4979,4.5011,4.5015,4.5029,4.5055,4.5062,4.5124,4.5103,4.514,4.5207,4.5226,4.5245,4.5345,4.5326,4.5357,4.5409,4.5448,4.546,4.547,4.5504,4.5516,4.5364,4.5364,4.5365,0,4.4922,4.4991,4.4989,4.504,4.5064,4.5042,4.5099,4.5119,4.516,4.5175,4.5152,4.5235,4.5251,4.5326,4.535,4.5366,4.538,4.5353,4.5459,4.5469,4.5478,4.551,4.5523,4.5368,4.5368,4.5367,4.5367,0,4.5042,4.509,4.5133,4.5175,4.5203,4.5257,4.5261,4.5289,4.5282,4.5288,4.5349,4.5368,4.5407,4.5425,4.5417,4.5497,4.5484,4.546,4.5418,4.5495,4.5525,4.5538,4.5373,4.5372,4.5371,4.537,0,0,4.5164,4.5205,4.522,4.5238,4.5271,4.5307,4.5358,4.5398,4.5422,4.5451,4.5492,4.5549,4.5527,4.5548,4.5543,4.5577,4.5653,4.5549,4.5549,4.5566,4.574,4.5757,4.5771,4.5641,4.5643,4.5645,4.5737,0,4.5259,4.5352,4.5351,4.5436,4.5478,4.5458,4.5502,4.5526,4.5533,4.5568,4.5574,4.5615,4.5584,4.5596,4.5629,4.5637,4.5687,4.563,4.5677,4.5679,4.567,4.5787,4.5805,4.5891,4.5749,4.5751,4.5753,0,4.5382,4.5416,4.5506,4.5531,4.5549,4.559,4.5625,4.5661,4.5686,4.5688,4.5712,4.57,4.575,4.5707,4.5774,4.5736,4.5755,4.5761,4.5764,4.5767,4.572,4.5792,4.5919,4.5931,4.5771,4.577,4.5768,0,4.546,4.5528,4.5591,4.5607,4.5638,4.5667,4.5681,4.5704,4.5727,4.5758,4.5773,4.5808,4.5827,4.5854,4.5851,4.5821,4.5919,4.5876,4.592,4.592,4.594,4.5939,4.607,4.5955,4.5955,4.5955,4.5954,0,4.5565,4.562,4.5626,4.5664,4.5724,4.5721,4.578,4.5791,4.5812,4.5849,4.5833,4.5869,4.5864,4.5899,4.5897,4.5952,4.5961,4.5962,4.5961,4.5963,4.5963,4.5974,4.5968,4.5958,4.5957,4.5957,4.5956,0,4.5662,4.5668,4.5734,4.5759,4.5766,4.581,4.5829,4.5864,4.587,4.5918,4.5929,4.5936,4.5976,4.5977,4.6023,4.6021,4.6088,4.608,4.608,4.6078,4.6121,4.6116,4.6263,4.6282,4.6156,4.6157,4.6158,0,4.5728,4.577,4.5799,4.5825,4.5841,4.5882,4.5906,4.5904,4.593,4.5961,4.5991,4.6031,4.6062,4.6126,4.6134,4.6169,4.6161,4.621,4.6166,4.6166,4.616,4.6157,4.616,4.6218,4.622,4.6221,4.6222,0,4.5843,4.5844,4.5882,4.592,4.595,4.5979,4.6006,4.6027,4.6028,4.6057,4.6099,4.6123,4.617,4.6208,4.6241,4.6253,4.6237,4.6236,4.6247,4.6249,4.6247,4.6247,4.6102,4.6232,4.6231,4.623,4.623,4.6229,4.5926,4.5962,4.5988,4.6029,4.605,4.6076,4.6109,4.6119,4.6155,4.6194,4.619,4.6236,4.6258,4.6301,4.6316,4.635,4.6333,4.635,4.6354,4.6358,4.6362,4.6243,4.6356,4.6356,4.6356,4.6355,4.6355,0,4.6039,4.6055,4.6094,4.6133,4.6165,4.6149,4.6178,4.6205,4.6246,4.6269,4.6301,4.6348,4.6384,4.6396,4.643,4.6456,4.6449,4.6465,4.6462,4.6465,4.6376,4.6362,4.6469,4.6469,4.6469,4.6469,4.6469,4.6469,4.6102,4.6162,4.6166,4.6235,4.6249,4.6296,4.6314,4.6336,4.6354,4.6408,4.644,4.6447,4.6465,4.6501,4.6533,4.6535,4.6548,4.6566,4.6565,4.6482,4.6471,4.646,4.6447,4.657,4.657,4.665,4.6651,4.6652]}]]